Terug naar catalogus

STARLINK-35226

ActiefCommunicatieVLEO
NORAD 65492·PAYLOAD·🇺🇸 United States

Gelanceerd Sep 5, 2025 vanaf Cape Canaveral Space Force Station

Loading…

Volgende Passages (komende 24 uur)

TLE

VersSource: CelesTrak SupGP

Epoch: Sep 15, 2026, 02:30 UTC

1 65492C 25198A   26258.10465278  .00023804  00000+0  70343-3 0  2581
2 65492  53.1582 106.7790 0001218  85.3026 234.3195 15.34373405    11

Volg STARLINK-35226 in realtime met AllMySat

Download on the App Store